Home   Weather   Plzen   Past weeks

Flag for Czech Republic Past Weather in Plzen, Czech Republic — Yesterday and Last 2 Weeks

Now
63 °F

Overcast.


Feels Like: 63 °F
Forecast: 53 / 62 °F
Wind: 2 mph from North

Location: Kocelovice

Current Time: Oct 1, 2016 at 8:56:56 PM

Latest Report: Oct 1, 2016 at 8:00 PM


Visibility: 31 mi

Pressure: 29.83 "Hg

Humidity: 64%

Dew Point: 51 °F

Location of PlzenLocation

Past Weather in Plzen — Graph

°F

Plzen Temperature Yesterday

Maximum temperature yesterday: 73 °F (at 1:00 PM)
Minimum temperature yesterday: 56 °F (at 8:00 AM)
Average temperature yesterday: 64 °F

High & Low Weather Summary for the Past Weeks

 TemperatureHumidityPressure
High73 °F (Sep 29, 4:00 PM)100% (Sep 17, 4:00 AM)30.41 "Hg (Sep 17, 4:00 AM)
Low38 °F (Sep 21, 5:00 AM)39% (Sep 30, 3:00 PM)29.74 "Hg (Sep 17, 2:00 PM)
Average56 °F81%30.11 "Hg
* Reported Sep 16 7:00 PM — Oct 1 7:00 PM, Plzen, Weather by CustomWeather, © 2016

Note: Actual official high and low records may vary slightly from our data, if they occured in-between our weather recording intervals... More about our weather records

Advertising

Plzen Weather History for the Previous 24 Hours

Scroll right to see more
 ConditionsComfort  
Time TempWeatherWind HumidityBarometerVisibility
7:00 PM
Sat, Oct 1
67 °FOvercast.2 mph58%29.82 "Hg34 mi
6:00 PM70 °FOvercast.1 mph55%29.79 "Hg34 mi
5:00 PM71 °FOvercast.2 mph50%29.80 "Hg47 mi
4:00 PM71 °FOvercast.2 mph49%29.80 "Hg47 mi
3:00 PM73 °FOvercast.N/A44%29.81 "Hg37 mi
1:00 PM70 °FOvercast.5 mph53%29.86 "Hg37 mi
12:00 PM65 °FOvercast.3 mph66%29.89 "Hg34 mi
11:00 AM62 °FOvercast.3 mph74%29.91 "Hg31 mi
10:00 AM58 °FOvercast.N/A86%29.92 "Hg7 mi
9:00 AM51 °FFog.2 mph97%29.94 "Hg2 mi
8:00 AM48 °FFog.2 mph97%29.96 "Hg1 mi
7:00 AM48 °FCool.2 mph99%29.96 "Hg2 mi
6:00 AM50 °FFog.N/A99%29.97 "Hg2 mi
5:00 AM52 °FCool.1 mph96%29.96 "Hg9 mi
4:00 AM52 °FCool.2 mph94%29.97 "Hg11 mi
3:00 AM52 °FCool.N/A95%29.98 "Hg12 mi
2:00 AM56 °FCool.2 mph85%29.98 "Hg12 mi
1:00 AM60 °FCool.1 mph74%29.97 "Hg12 mi
12:00 AM60 °FCool.1 mph73%29.98 "Hg12 mi
11:00 PM
Fri, Sep 30
57 °FCool.N/A82%30.00 "Hg12 mi
10:00 PM58 °FPassing clouds.1 mph80%29.99 "Hg31 mi
9:00 PM59 °FPassing clouds.N/A75%29.99 "Hg37 mi
8:00 PM63 °FPassing clouds.1 mph64%29.97 "Hg43 mi
Weather by CustomWeather, © 2016

See weather overviewHow to use our weather pages